Time,TemperatureF,DewpointF,PressureIn,WindDirection,WindDirectionDegrees,WindSpeedMPH,WindSpeedGustMPH,Humidity,HourlyPrecipIn,Conditions,Clouds,dailyrainin,SoftwareType,DateUTC
2013-10-19 00:11:00,57.4,53.0,29.97,ESE,122,0.0,0.0,86,0.00,,,0.00,weatherlink.com 1.10,2013-10-19 05:11:00,
2013-10-19 00:26:00,57.7,54.0,29.98,ESE,122,0.0,0.0,86,0.00,,,0.00,weatherlink.com 1.10,2013-10-19 05:26:00,
2013-10-19 00:41:00,57.6,54.0,30.00,ESE,122,0.0,0.0,86,0.00,,,0.00,weatherlink.com 1.10,2013-10-19 05:41:00,
2013-10-19 00:56:00,57.6,54.0,30.00,ESE,122,0.0,0.0,86,0.00,,,0.00,weatherlink.com 1.10,2013-10-19 05:56:00,
2013-10-19 01:11:00,57.7,53.0,30.00,ESE,122,0.0,0.0,85,0.00,,,0.00,weatherlink.com 1.10,2013-10-19 06:11:00,
2013-10-19 01:26:00,57.8,53.0,29.99,ESE,122,0.0,0.0,85,0.00,,,0.00,weatherlink.com 1.10,2013-10-19 06:26:00,
2013-10-19 01:41:00,57.8,53.0,29.98,ESE,122,0.0,0.0,85,0.00,,,0.00,weatherlink.com 1.10,2013-10-19 06:41:00,
2013-10-19 01:56:00,57.8,53.0,29.98,ESE,122,0.0,0.0,85,0.00,,,0.00,weatherlink.com 1.10,2013-10-19 06:56:00,
2013-10-19 02:12:00,57.9,54.0,30.00,ESE,122,0.0,0.0,85,0.00,,,0.00,weatherlink.com 1.10,2013-10-19 07:12:00,
2013-10-19 02:26:00,58.1,54.0,29.99,ESE,122,0.0,0.0,85,0.00,,,0.00,weatherlink.com 1.10,2013-10-19 07:26:00,
2013-10-19 02:41:00,58.2,54.0,29.99,ESE,122,0.0,0.0,85,0.00,,,0.00,weatherlink.com 1.10,2013-10-19 07:41:00,
2013-10-19 02:56:00,58.1,54.0,30.00,ESE,122,0.0,0.0,85,0.00,,,0.00,weatherlink.com 1.10,2013-10-19 07:56:00,
2013-10-19 03:11:00,58.2,54.0,30.00,ESE,122,0.0,0.0,85,0.00,,,0.00,weatherlink.com 1.10,2013-10-19 08:11:00,
2013-10-19 03:26:00,58.1,54.0,29.99,ESE,122,0.0,0.0,85,0.00,,,0.00,weatherlink.com 1.10,2013-10-19 08:26:00,
2013-10-19 03:41:00,57.9,54.0,29.99,ESE,122,0.0,0.0,85,0.00,,,0.00,weatherlink.com 1.10,2013-10-19 08:41:00,
2013-10-19 03:56:00,57.6,53.0,29.98,ESE,122,0.0,0.0,85,0.00,,,0.00,weatherlink.com 1.10,2013-10-19 08:56:00,
2013-10-19 04:11:00,57.3,53.0,29.98,ESE,122,0.0,0.0,85,0.00,,,0.00,weatherlink.com 1.10,2013-10-19 09:11:00,
2013-10-19 04:26:00,57.0,53.0,29.98,ESE,122,0.0,0.0,85,0.00,,,0.00,weatherlink.com 1.10,2013-10-19 09:26:00,
2013-10-19 04:41:00,56.6,53.0,29.98,ESE,122,0.0,0.0,86,0.00,,,0.00,weatherlink.com 1.10,2013-10-19 09:41:00,
2013-10-19 04:56:00,56.3,52.0,29.98,ESE,122,0.0,0.0,86,0.00,,,0.00,weatherlink.com 1.10,2013-10-19 09:56:00,
2013-10-19 05:11:00,56.1,52.0,29.99,ESE,122,0.0,0.0,86,0.00,,,0.00,weatherlink.com 1.10,2013-10-19 10:11:00,
2013-10-19 05:26:00,55.8,52.0,29.99,ESE,122,0.0,0.0,86,0.00,,,0.00,weatherlink.com 1.10,2013-10-19 10:26:00,
2013-10-19 05:41:00,56.1,52.0,30.01,WNW,288,0.0,5.0,86,0.00,,,0.00,weatherlink.com 1.10,2013-10-19 10:41:00,
2013-10-19 05:56:00,56.8,52.0,30.01,WNW,294,0.0,13.0,85,0.00,,,0.00,weatherlink.com 1.10,2013-10-19 10:56:00,
2013-10-19 06:11:00,57.0,53.0,30.02,North,355,0.0,9.0,85,0.00,,,0.00,weatherlink.com 1.10,2013-10-19 11:11:00,
2013-10-19 06:27:00,57.4,53.0,30.02,West,277,0.0,10.0,86,0.00,,,0.00,weatherlink.com 1.10,2013-10-19 11:27:00,
2013-10-19 06:41:00,57.6,54.0,30.03,WNW,296,0.0,5.0,86,0.00,,,0.00,weatherlink.com 1.10,2013-10-19 11:41:00,
2013-10-19 06:56:00,57.9,54.0,30.03,West,281,0.0,5.0,86,0.00,,,0.00,weatherlink.com 1.10,2013-10-19 11:56:00,
2013-10-19 07:11:00,58.2,54.0,30.04,NNW,327,0.0,9.0,87,0.00,,,0.00,weatherlink.com 1.10,2013-10-19 12:11:00,
2013-10-19 07:26:00,58.3,55.0,30.04,West,267,0.0,11.0,88,0.00,,,0.00,weatherlink.com 1.10,2013-10-19 12:26:00,
2013-10-19 07:41:00,58.0,55.0,30.05,NW,311,0.0,12.0,88,0.00,,,0.00,weatherlink.com 1.10,2013-10-19 12:41:00,
2013-10-19 07:56:00,58.0,55.0,30.05,WNW,288,3.0,7.0,89,0.00,,,0.00,weatherlink.com 1.10,2013-10-19 12:56:00,
2013-10-19 08:11:00,57.3,54.0,30.07,WNW,293,1.0,9.0,88,0.00,,,0.00,weatherlink.com 1.10,2013-10-19 13:11:00,
2013-10-19 08:26:00,56.9,53.0,30.07,WNW,284,5.0,10.0,87,0.00,,,0.00,weatherlink.com 1.10,2013-10-19 13:26:00,
2013-10-19 08:42:00,56.1,52.0,30.08,NW,310,9.0,14.0,86,0.00,,,0.00,weatherlink.com 1.10,2013-10-19 13:42:00,
2013-10-19 08:57:00,55.8,52.0,30.09,WNW,290,1.0,11.0,86,0.00,,,0.00,weatherlink.com 1.10,2013-10-19 13:57:00,
2013-10-19 09:12:00,55.2,51.0,30.10,NNW,330,0.0,15.0,85,0.00,,,0.00,weatherlink.com 1.10,2013-10-19 14:12:00,
2013-10-19 09:27:00,55.1,50.0,30.11,West,278,7.0,10.0,84,0.00,,,0.00,weatherlink.com 1.10,2013-10-19 14:27:00,
2013-10-19 09:42:00,55.3,51.0,30.11,North,350,0.0,8.0,84,0.00,,,0.00,weatherlink.com 1.10,2013-10-19 14:42:00,
2013-10-19 09:57:00,55.8,51.0,30.12,WNW,286,5.0,11.0,83,0.00,,,0.00,weatherlink.com 1.10,2013-10-19 14:57:00,
2013-10-19 10:12:00,56.2,51.0,30.12,WNW,303,0.0,14.0,82,0.00,,,0.00,weatherlink.com 1.10,2013-10-19 15:12:00,
2013-10-19 10:27:00,56.5,50.0,30.12,NW,321,2.0,11.0,79,0.00,,,0.00,weatherlink.com 1.10,2013-10-19 15:27:00,
2013-10-19 10:42:00,56.9,50.0,30.12,WNW,296,4.0,12.0,77,0.00,,,0.00,weatherlink.com 1.10,2013-10-19 15:42:00,
2013-10-19 10:57:00,57.9,50.0,30.13,North,360,3.0,11.0,76,0.00,,,0.00,weatherlink.com 1.10,2013-10-19 15:57:00,
2013-10-19 11:12:00,58.8,51.0,30.12,West,261,0.0,11.0,75,0.00,,,0.00,weatherlink.com 1.10,2013-10-19 16:12:00,
2013-10-19 11:27:00,59.9,52.0,30.12,WNW,286,1.0,11.0,74,0.00,,,0.00,weatherlink.com 1.10,2013-10-19 16:27:00,
2013-10-19 11:42:00,60.3,52.0,30.12,WNW,282,5.0,12.0,73,0.00,,,0.00,weatherlink.com 1.10,2013-10-19 16:42:00,
2013-10-19 11:57:00,60.2,50.0,30.12,WNW,286,0.0,11.0,69,0.00,,,0.00,weatherlink.com 1.10,2013-10-19 16:57:00,
2013-10-19 12:12:00,60.9,50.0,30.12,NW,312,3.0,6.0,68,0.00,,,0.00,weatherlink.com 1.10,2013-10-19 17:12:00,
2013-10-19 12:27:00,60.9,49.0,30.12,WNW,284,7.0,14.0,65,0.00,,,0.00,weatherlink.com 1.10,2013-10-19 17:27:00,
2013-10-19 12:42:00,61.8,50.0,30.11,SE,141,0.0,8.0,66,0.00,,,0.00,weatherlink.com 1.10,2013-10-19 17:42:00,
2013-10-19 12:57:00,61.7,48.0,30.11,North,355,6.0,11.0,61,0.00,,,0.00,weatherlink.com 1.10,2013-10-19 17:57:00,
2013-10-19 13:12:00,62.7,48.0,30.10,NW,309,0.0,10.0,59,0.00,,,0.00,weatherlink.com 1.10,2013-10-19 18:12:00,
2013-10-19 13:27:00,64.3,49.0,30.10,WNW,286,12.0,12.0,57,0.00,,,0.00,weatherlink.com 1.10,2013-10-19 18:27:00,
2013-10-19 13:42:00,64.8,49.0,30.09,North,7,1.0,9.0,56,0.00,,,0.00,weatherlink.com 1.10,2013-10-19 18:42:00,
2013-10-19 13:57:00,64.7,48.0,30.08,NE,55,2.0,9.0,55,0.00,,,0.00,weatherlink.com 1.10,2013-10-19 18:57:00,
2013-10-19 14:12:00,66.0,49.0,30.08,NNW,329,6.0,11.0,54,0.00,,,0.00,weatherlink.com 1.10,2013-10-19 19:12:00,
2013-10-19 14:27:00,66.3,47.0,30.08,East,93,0.0,11.0,50,0.00,,,0.00,weatherlink.com 1.10,2013-10-19 19:27:00,
2013-10-19 14:42:00,66.7,48.0,30.08,West,280,8.0,14.0,51,0.00,,,0.00,weatherlink.com 1.10,2013-10-19 19:42:00,
2013-10-19 14:57:00,67.0,49.0,30.08,WSW,240,0.0,8.0,52,0.00,,,0.00,weatherlink.com 1.10,2013-10-19 19:57:00,
2013-10-19 15:12:00,67.1,47.0,30.08,North,11,0.0,12.0,49,0.00,,,0.00,weatherlink.com 1.10,2013-10-19 20:12:00,
2013-10-19 15:27:00,66.3,45.0,30.08,WNW,287,3.0,12.0,46,0.00,,,0.00,weatherlink.com 1.10,2013-10-19 20:27:00,
2013-10-19 15:42:00,66.2,44.0,30.08,NNE,25,4.0,15.0,45,0.00,,,0.00,weatherlink.com 1.10,2013-10-19 20:42:00,
2013-10-19 15:57:00,66.6,44.0,30.08,West,267,4.0,9.0,44,0.00,,,0.00,weatherlink.com 1.10,2013-10-19 20:57:00,
2013-10-19 16:13:00,67.5,43.0,30.08,North,11,0.0,5.0,42,0.00,,,0.00,weatherlink.com 1.10,2013-10-19 21:13:00,
2013-10-19 16:28:00,66.3,44.0,30.08,NW,307,2.0,8.0,44,0.00,,,0.00,weatherlink.com 1.10,2013-10-19 21:28:00,
2013-10-19 16:43:00,65.6,44.0,30.07,NNW,336,1.0,12.0,46,0.00,,,0.00,weatherlink.com 1.10,2013-10-19 21:43:00,
2013-10-19 16:58:00,64.9,43.0,30.07,West,265,6.0,10.0,46,0.00,,,0.00,weatherlink.com 1.10,2013-10-19 21:58:00,
2013-10-19 17:13:00,64.2,43.0,30.07,WNW,288,1.0,8.0,47,0.00,,,0.00,weatherlink.com 1.10,2013-10-19 22:13:00,
2013-10-19 17:28:00,63.7,43.0,30.07,WNW,286,3.0,6.0,47,0.00,,,0.00,weatherlink.com 1.10,2013-10-19 22:28:00,
2013-10-19 17:43:00,62.9,43.0,30.07,WNW,284,0.0,5.0,49,0.00,,,0.00,weatherlink.com 1.10,2013-10-19 22:43:00,
2013-10-19 17:58:00,62.2,44.0,30.07,WNW,288,0.0,5.0,51,0.00,,,0.00,weatherlink.com 1.10,2013-10-19 22:58:00,
2013-10-19 18:13:00,61.2,44.0,30.07,WNW,290,0.0,0.0,54,0.00,,,0.00,weatherlink.com 1.10,2013-10-19 23:13:00,
2013-10-19 18:28:00,59.9,45.0,30.07,WNW,290,0.0,1.0,58,0.00,,,0.00,weatherlink.com 1.10,2013-10-19 23:28:00,
2013-10-19 18:43:00,58.8,49.0,30.08,WNW,290,0.0,0.0,70,0.00,,,0.00,weatherlink.com 1.10,2013-10-19 23:43:00,
2013-10-19 18:58:00,56.6,48.0,30.08,WNW,290,0.0,0.0,73,0.00,,,0.00,weatherlink.com 1.10,2013-10-19 23:58:00,
2013-10-19 19:13:00,55.1,48.0,30.08,WNW,290,0.0,0.0,77,0.00,,,0.00,weatherlink.com 1.10,2013-10-20 00:13:00,
2013-10-19 19:28:00,53.7,47.0,30.08,WNW,290,0.0,0.0,79,0.00,,,0.00,weatherlink.com 1.10,2013-10-20 00:28:00,
2013-10-19 19:43:00,52.7,47.0,30.08,WNW,290,0.0,0.0,81,0.00,,,0.00,weatherlink.com 1.10,2013-10-20 00:43:00,
2013-10-19 19:58:00,51.9,47.0,30.09,WNW,290,0.0,0.0,83,0.00,,,0.00,weatherlink.com 1.10,2013-10-20 00:58:00,
2013-10-19 20:13:00,51.2,47.0,30.09,WNW,290,0.0,0.0,84,0.00,,,0.00,weatherlink.com 1.10,2013-10-20 01:13:00,
2013-10-19 20:28:00,50.6,46.0,30.09,WNW,290,0.0,0.0,84,0.00,,,0.00,weatherlink.com 1.10,2013-10-20 01:28:00,
2013-10-19 20:43:00,50.0,46.0,30.09,WNW,290,0.0,0.0,85,0.00,,,0.00,weatherlink.com 1.10,2013-10-20 01:43:00,
2013-10-19 20:58:00,49.4,45.0,30.09,WNW,290,0.0,0.0,86,0.00,,,0.00,weatherlink.com 1.10,2013-10-20 01:58:00,
2013-10-19 21:13:00,49.1,45.0,30.09,WNW,290,0.0,0.0,87,0.00,,,0.00,weatherlink.com 1.10,2013-10-20 02:13:00,
2013-10-19 21:28:00,48.6,45.0,30.09,WNW,290,0.0,0.0,87,0.00,,,0.00,weatherlink.com 1.10,2013-10-20 02:28:00,
2013-10-19 21:43:00,47.9,45.0,30.09,WNW,290,0.0,0.0,88,0.00,,,0.00,weatherlink.com 1.10,2013-10-20 02:43:00,
2013-10-19 21:58:00,47.4,44.0,30.09,WNW,290,0.0,0.0,88,0.00,,,0.00,weatherlink.com 1.10,2013-10-20 02:58:00,
2013-10-19 22:13:00,47.0,44.0,30.09,WNW,290,0.0,0.0,88,0.00,,,0.00,weatherlink.com 1.10,2013-10-20 03:13:00,
2013-10-19 22:28:00,46.8,44.0,30.10,WNW,290,0.0,0.0,88,0.00,,,0.00,weatherlink.com 1.10,2013-10-20 03:28:00,
2013-10-19 22:43:00,46.5,43.0,30.10,WNW,290,0.0,0.0,88,0.00,,,0.00,weatherlink.com 1.10,2013-10-20 03:43:00,
2013-10-19 22:58:00,46.1,43.0,30.09,WNW,290,0.0,0.0,89,0.00,,,0.00,weatherlink.com 1.10,2013-10-20 03:58:00,
2013-10-19 23:13:00,45.7,43.0,30.10,WNW,290,0.0,0.0,89,0.00,,,0.00,weatherlink.com 1.10,2013-10-20 04:13:00,
2013-10-19 23:28:00,45.3,42.0,30.10,WNW,290,0.0,0.0,89,0.00,,,0.00,weatherlink.com 1.10,2013-10-20 04:28:00,
2013-10-19 23:43:00,45.4,42.0,30.09,WNW,290,0.0,0.0,89,0.00,,,0.00,weatherlink.com 1.10,2013-10-20 04:43:00,
2013-10-19 23:58:00,45.4,42.0,30.09,WNW,290,0.0,0.0,89,0.00,,,0.00,weatherlink.com 1.10,2013-10-20 04:58:00,